22:45
Airports
History
Links
Donate
Help keep this website running!
PayPal
Bitcoin
Information on this page is community maintained and may be outdated or inaccurate and is intended for reference only or PC simulator navigating.
Always use approved charts for navigating.
62NE
BeebeEdited 07-Mar-2012
Beebe (62NE)
Culbertson, Nebraska, United States (69024)
4
Lat/Lng:40° 26' 51.03" N / 100° 47' 33.56" W
40.447507 / -100.792655
Elevation:2860'ft 872mMSL
ID / ICAO:62NE
Runways:1
Longest:(36-18) 1,110.4m 3,643ft Grass
Distance To
Airport ID:
Nearby VORs <50NM
Nearby NDBs
Nearby WeatherUpdated 06-28-17 21:53 GMT
Nearby weather at KMCK, Mc Cook Ben Nelson Rgnl located 19.7 nautical miles from 62NE
Altimeter: 29.73
Visibility: 10.0 statute miles
Wind: 6 knots (110°)
Temp: 33°c 91°f
Humidity: 22.8%

METAR: KMCK 282153Z AUTO 11006KT 10SM CLR 33/09 A2973 RMK AO2 SLP038 T03280089

(Powered by phpweather)
Runway 36 / 18
Dimensions:1110.4 x 27.4m 3643' x 90'ft
Surface:Grass
Runway 36 [A]Runway 18 [B]
Heading:008°TH 188°TH
Lat:
Lng:
40° 26' 33.32"N
100° 47' 37.24"W
40° 27' 8.73"N
100° 47' 29.87"W
User Notes and Comments
Google Map
Nearby Airports
4 Hock 9.1 NM
46V S 185°
(R) Malone M-bar Ranch 19.4 NM
4NE8 WSW 256°
(U) Mc Cook Ben Nelson Rgnl 19.7 NM
KMCK (WX) SSE 147°
4 Bakers Acres 21.2 NM
5NE6 SW 229°
(U) Curtis Muni 21.3 NM
47V NE 51°
4 Trenton Muni 21.8 NM
9V2 SW 214°
4 Hoyt 23.4 NM
53V S 182°
VFR Chart
Flight Planning at SkyVector.com